Location: Most
(50.5133°N, 13.6207°E)
Time: 08:16:56
(UTC+02:00)

ISS - Pass Details

Date: 12 October 2018
Orbit: 403 x 408 km, 51.6° (Epoch: 21 October)

Event Time Altitude Azimuth Distance (km) Brightness Sun altitude
Rises 19:10:54 0° 282° (WNW) 2,338 1.9 -8.8°
Reaches altitude 10° 19:13:30 10° 261° (W) 1,473 0.6 -9.3°
Maximum altitude 19:15:40 16° 220° (SW) 1,141 -1.0 -9.6°
Drops below altitude 10° 19:17:50 10° 178° (S) 1,466 -1.0 -9.9°
Sets 19:20:25 0° 157° (SSE) 2,321 -0.2 -10.4°
